OBJECT BC, 63260

Orbit data source: Space-Track

You're viewing an Uncataloged Satellite

Recently launched and/or uncataloged satellites may have evolving metadata. Metadata may include but not limited to: Owner, Maufacturer, Bus, Motor, and Mission.

OBJECT BC, 63260 is a satellite in SSO that was launched on Sat, 15 Mar 2025 UTC via an FALCON 9 launch vehicle from the Air Force Western Test Range (AFWTR). Unknown objects in Earth's orbit typically refer to objects detected orbiting the Earth but have not yet been identified or cataloged. These objects could be anything from previously untracked satellites, spent rocket stages, debris from satellite collisions, or even natural meteoroids temporarily captured by Earth's gravity.

Loading next visibility...
Identifier
63260, 2025-052BC
Orbit
SSO
Country
Flag of TBDTBD
Related business
Manufacturer
Yonsei U
Mission
Operational Amateur Technology
Bus & Motor
CUBESAT 3U, Unknown motor
Mass
5 kg wet, 5 kg dry
Launch date (UTC)
2025-03-15 (1 year ago)
Launch vehicle
FALCON 9
Launch site
Air Force Western Test Range (AFWTR)
Object type
Unknown
Shape & HBR
Box + 4 Pan + 1 Sail, 1.1 m
Radar Cross Section
0.090 m², Medium (>0.1 m² and < 1m²)

Expand to show TLE details & history
Last TLE update: 11 hours ago

TLE from 11 hours ago
0 OBJECT BC
1 63260U 25052BC  26175.18123460  .00001642  00000-0  15657-3 0  9997
2 63260  97.6843  66.4253 0001118  24.8032 335.3242 14.94695200 69672
Epoch: 2026-06-24T04:20Z
TLE epoch observation values (Epoch: 2026-06-24T04:20:58.669Z)
Latitude
-0.00003°
Longitude
88.83872°
Altitude
585.66 km
Speed
7.568 km/s
True Right ascension
04h 25m 42s
True Declination
0° 00' 00"
Sunlit
Object was in daylight at epoch
Visualization orbit readout
Latitude
Unknown
Longitude
Unknown
Altitude
Unknown
Speed
Unknown
Apparent Right ascension
Unknown
Apparent Declination
Unknown
Sunlit
N/A
Visualization observer readout
Local Sidereal Time
02:16:17
Azimuth
Unknown
Elevation
Unknown
Doppler factor
Unknown
Orbital elements
Apogee altitude
581.109 km
Perigee altitude
579.553 km
Semi-major axis
6,958.468 km
Eccentricity
0.00011
Inclination
97.6843°
RAAN
66.4253°
Arg. of periapsis
24.8032°
True anomaly
335.31885°
Mean anomaly
335.3242°
Eccentric anomaly
335.32153°
Mean motion
3.73915 °/min
Orbital period
96.28 mins
BSTAR
0.00015657
Loading maneuver chart data...
Computing Atmospheric mass density...
Loading historical data...
Loading historical data...
Loading historical data...
Loading historical data...
Loading historical data...
Loading historical data...
Loading historical data...

Documentation

Showing up to 5 results
|